This is the latest recevied weather packets stored in our database for station/object M0UPS-13. If no packets are shown the sender has not sent any weather packets the latest 10 day(s).
| Time | Temp. | Humidity | Pressure | Rain* | Wind** | Luminosity | Snow |
|---|---|---|---|---|---|---|---|
| 1777886702 | 13.89° C | 82% | 1014.6 hPa | 0 mm | - | 135 W/m² | - |
| 1777886403 | 13.89° C | 81% | 1014.9 hPa | 0 mm | - | 109 W/m² | - |
| 1777886102 | 13.89° C | 82% | 1014.9 hPa | 0 mm | - | 109 W/m² | - |
| 1777885802 | 13.89° C | 82% | 1014.7 hPa | 0 mm | - | 132 W/m² | - |
| 1777885502 | 13.33° C | 82% | 1014.9 hPa | 0 mm | - | 178 W/m² | - |
| 1777885202 | 13.33° C | 83% | 1014.9 hPa | 0 mm | - | 214 W/m² | - |
| 1777884902 | 13.33° C | 83% | 1014.7 hPa | 0 mm | - | 196 W/m² | - |
| 1777884602 | 13.33° C | 83% | 1014.5 hPa | 0 mm | - | 153 W/m² | - |
| 1777884302 | 13.33° C | 84% | 1014.5 hPa | 0 mm | - | 170 W/m² | - |
| 1777884002 | 13.33° C | 83% | 1014.4 hPa | 0 mm | - | 157 W/m² | - |
| 1777883702 | 13.33° C | 83% | 1014.4 hPa | 0 mm | - | 109 W/m² | - |
| 1777883402 | 13.33° C | 83% | 1014.4 hPa | 0 mm | - | 109 W/m² | - |
| 1777883102 | 13.33° C | 84% | 1014.5 hPa | 0 mm | - | 95 W/m² | - |
| 1777882802 | 13.33° C | 84% | 1014.3 hPa | 0 mm | - | 74 W/m² | - |
| 1777882502 | 13.33° C | 84% | 1014.2 hPa | 0 mm | - | 69 W/m² | - |
| 1777882202 | 13.33° C | 84% | 1014.3 hPa | 0 mm | - | 56 W/m² | - |
| 1777881902 | 13.33° C | 84% | 1014.1 hPa | 0 mm | - | 54 W/m² | - |
| 1777881602 | 13.33° C | 84% | 1014.2 hPa | 0 mm | - | 51 W/m² | - |
| 1777881303 | 13.33° C | 84% | 1014.1 hPa | 0 mm | - | 49 W/m² | - |
| 1777881002 | 13.33° C | 84% | 1014 hPa | 0 mm | - | 49 W/m² | - |
| 1777880702 | 13.33° C | 84% | 1014 hPa | 0 mm | - | 48 W/m² | - |
| 1777880402 | 13.33° C | 84% | 1014.1 hPa | 0 mm | - | 47 W/m² | - |
| 1777880103 | 13.33° C | 85% | 1013.9 hPa | 0 mm | - | 41 W/m² | - |
| 1777879802 | 13.33° C | 85% | 1014.1 hPa | 0 mm | - | 38 W/m² | - |
| 1777879502 | 13.33° C | 85% | 1013.8 hPa | 0 mm | - | 35 W/m² | - |
* Rain latest hour (hover to see other rain measurements)
** Current wind speed in m/s (hover to see current wind gust speed)